This is the latest recevied weather packets stored in our database for station/object KC8UZG. If no packets are shown the sender has not sent any weather packets the latest 10 day(s).
| Time | Temp. | Humidity | Pressure | Rain* | Wind** | Luminosity | Snow |
|---|---|---|---|---|---|---|---|
| 1777564537 | 11.11° C | 71% | 1016 hPa | 0 mm | - | 344 W/m² | - |
| 1777563916 | 11.11° C | 70% | 1015.7 hPa | 0 mm | - | 225 W/m² | - |
| 1777563321 | 11.67° C | 70% | 1016 hPa | 0 mm | - | 456 W/m² | - |
| 1777562727 | 11.67° C | 71% | 1016 hPa | 0 mm | - | 371 W/m² | - |
| 1777562134 | 10.56° C | 71% | 1016 hPa | 0 mm | - | 422 W/m² | - |
| 1777561540 | 10° C | 75% | 1015.9 hPa | 0 mm | - | 248 W/m² | - |
| 1777560919 | 10.56° C | 75% | 1015.7 hPa | 0 mm | - | 140 W/m² | - |
| 1777560324 | 10° C | 77% | 1015.7 hPa | 0 mm | - | 401 W/m² | - |
| 1777559731 | 9.44° C | 78% | 1015.6 hPa | 0 mm | - | 160 W/m² | - |
| 1777559136 | 8.89° C | 81% | 1015.6 hPa | 0 mm | - | 119 W/m² | - |
| 1777558516 | 8.33° C | 81% | 1015.3 hPa | 0 mm | - | 98 W/m² | - |
| 1777557922 | 8.89° C | 82% | 1015.3 hPa | 0 mm | - | 99 W/m² | - |
| 1777557328 | 8.89° C | 84% | 1015.3 hPa | 0 mm | - | 89 W/m² | - |
| 1777556733 | 8.33° C | 86% | 1015.2 hPa | 0 mm | - | 66 W/m² | - |
| 1777556140 | 8.33° C | 86% | 1015 hPa | 0 mm | - | 106 W/m² | - |
| 1777555519 | 7.78° C | 88% | 1014.6 hPa | 0 mm | - | 67 W/m² | - |
| 1777554924 | 7.22° C | 90% | 1014.6 hPa | 0 mm | - | 56 W/m² | - |
| 1777554330 | 7.22° C | 91% | 1014.3 hPa | 0 mm | - | 71 W/m² | - |
| 1777553737 | 6.11° C | 92% | 1014.3 hPa | 0 mm | - | 62 W/m² | - |
| 1777553116 | 6.67° C | 91% | 1014.3 hPa | 0 mm | - | 46 W/m² | - |
| 1777552521 | 6.67° C | 91% | 1014.3 hPa | 0 mm | - | 31 W/m² | - |
| 1777551928 | 7.22° C | 91% | 1014.1 hPa | 0 mm | - | 35 W/m² | - |
| 1777551334 | 6.67° C | 92% | 1013.9 hPa | 0 mm | - | 42 W/m² | - |
| 1777550739 | 6.67° C | 92% | 1013.8 hPa | 0 mm | - | 40 W/m² | - |
| 1777550119 | 6.67° C | 93% | 1013.6 hPa | 0 mm | - | 30 W/m² | - |
* Rain latest hour (hover to see other rain measurements)
** Current wind speed in m/s (hover to see current wind gust speed)